Vertical_Velocity
2 3 5 0 -3 -1 -6 -26 35 -16 -2 5 -9 2 -3 -5 19 -2 -2 -1 -0 1 0 -0 1 3 4 -0 -5 1 -5 -3 -3 6 2 1 -0 -2 -2 -1 -0 5 3 2 1 -1 0 0 0
3 2 2 3 -3 9 -19 -10 32 1 -1 -11 -1 0 -3 -3 -2 -1 -9 2 2 1 2 -2 1 1 -5 -5 -6 -11 -2 -5 0 2 -1 -4 -0 -1 0 0 -1 -0 -1 1 -0 1 1 -0 1
4 6 4 1 -3 -13 3 24 19 -4 -8 -1 -3 2 -6 0 -1 -5 5 -2 4 0 1 1 -0 0 3 -3 1 -0 0 -0 2 -1 -1 0 -2 -1 2 -0 2 3 1 1 -1 -2 1 -2 2
2 -0 9 -7 -4 -22 5 -21 -0 -1 -5 0 -0 0 0 4 -1 4 1 -11 4 1 -1 0 -2 1 1 -1 -4 -0 1 3 2 -0 0 2 2 -1 1 0 -1 -1 0 -1 0 0 1 2 0
5 6 8 -6 -14 -1 -12 21 1 3 1 3 -8 -3 -3 -0 -4 6 -6 4 1 -0 -0 2 2 1 1 -2 -1 -0 1 0 -1 -1 0 -0 -0 -2 -0 -0 -0 0 -1 -1 -1 3 1 2 1
-3 3 1 -6 -14 -7 30 11 -13 3 1 8 -8 -1 -1 1 -1 -0 -4 0 2 -0 1 0 -2 0 -1 -1 -0 -1 -2 -0 -2 -1 1 0 -1 1 3 -2 -1 0 1 2 1 -0 2 3 0
-6 4 -10 -5 -6 -15 27 -1 -10 0 -3 10 -1 -8 3 -1 1 -0 -1 0 0 -1 1 -2 -1 -2 -2 0 -2 -1 1 1 -1 -0 -2 -0 2 -0 1 -1 -2 -0 0 0 -1 1 0 1 1
1 6 1 1 -5 -13 30 -15 4 8 4 3 0 -0 -4 -6 4 -0 -1 3 5 -0 0 1 -1 -1 0 -1 -0 -0 1 1 -2 -1 -1 -3 -2 0 1 -2 -1 -0 1 -1 0 2 -1 2 -0
16 -2 -6 -14 1 -18 24 -12 4 21 2 -1 6 -5 -3 -1 -1 -1 -2 4 -0 2 0 -0 0 -1 -2 -1 -1 -1 -0 -2 -0 -1 1 0 -1 -0 0 -1 -1 0 0 -0 0 -0 1 -0 -1
-1 -7 -6 -8 -9 10 5 -3 -3 1 -1 -5 -8 -5 2 0 2 -1 -3 -0 -1 -3 -2 0 -0 -1 -1 -0 -1 -1 -1 -1 -1 -0 1 2 1 -1 -1 -1 -0 -1 -1 -1 -1 -0 -1 -0 -0
2 2 -10 -8 1 42 5 2 -8 4 3 -4 -10 -3 -1 -0 -0 1 1 4 0 -0 -2 -2 -1 -1 -0 0 1 -1 -0 -1 -0 -0 0 -2 -1 -1 -1 -1 -1 -1 -1 -1 -1 -0 -1 -0 -0
4 -6 -4 -11 14 19 -8 10 -9 4 4 3 -6 5 0 -1 -4 1 -3 0 -0 -3 3 -0 -1 1 -1 0 -0 -0 0 -1 -1 -1 -1 -1 -1 -0 -1 -1 -0 -0 -0 -1 -0 -0 1 -1 -1
-0 -6 1 12 -6 3 -1 5 -0 5 4 -0 -6 4 -3 -0 1 3 2 3 2 -4 -0 -0 -2 0 0 -0 -0 -1 -1 -1 0 -0 0 1 -0 0 0 0 -1 -1 -2 -1 -1 -1 -1 -2 -1
-4 -3 4 4 -11 5 -3 5 1 -4 15 -9 0 6 -1 -0 -2 1 -1 -1 3 0 -2 -1 -1 -0 -0 1 1 0 -2 -0 -0 -0 -1 -1 -0 -0 -1 -1 -0 -0 0 -1 -1 -1 -1 -0 -0
-6 -4 7 -1 -4 -6 1 8 -7 2 15 -4 2 1 2 -1 -3 0 2 0 1 2 -1 -0 -1 0 -0 -0 -1 0 -2 0 -0 -0 -1 -0 -1 -1 -1 -2 -0 -0 -0 0 1 1 1 1 1
-2 9 2 2 2 -2 3 -9 6 5 -3 -4 0 1 1 -1 2 -0 0 -0 -0 -1 0 -0 -1 0 -0 -1 -1 0 -2 -1 -1 -1 -1 -1 -1 -1 -1 0 -0 -1 -1 -0 -0 -0 -0 -1 -1
8 -7 2 2 -0 -3 -4 1 7 6 -0 3 -4 -0 2 -3 -1 -2 -1 -2 -2 0 -1 -1 -2 -1 0 -0 0 -0 -0 -2 -2 -1 0 -1 -1 -1 -1 1 -0 -0 -1 -1 -1 -1 -0 1 0
-16 1 2 -4 -8 10 3 -6 5 2 -4 -2 -3 -0 2 -1 -1 -3 -2 -3 -1 -1 2 0 0 0 -1 0 -0 -1 -2 -3 -2 -1 -1 -1 -0 -0 -1 1 0 -0 -1 -1 -0 -0 -0 -1 -0
8 6 1 20 -5 -5 -8 8 -6 8 6 2 -6 -5 -0 0 0 -0 0 -5 1 -5 0 0 -1 0 -2 -2 -3 -2 1 1 -1 -2 -0 0 -1 -2 -0 -1 -1 -0 -1 -1 -0 -1 -1 -1 -1
0 1 -0 25 -7 1 -4 5 2 7 6 -7 -6 -5 -0 -1 -2 -0 -1 -5 -2 -1 -1 -0 1 -1 -0 -3 -1 -2 1 -1 -1 -2 0 -2 -0 -1 -1 -1 -0 -0 -1 -1 -0 -0 -0 0 -1
21 -12 3 -9 3 9 5 7 4 2 13 17 7 10 1 0 -1 -4 -5 -5 -4 -6 -3 -0 1 0 -1 -1 -2 -2 -1 -2 -1 -1 -1 0 0 -1 -0 -1 -1 -1 -1 -0 -0 0 0 -1 -1
4 -4 16 -4 -5 -8 7 -5 6 2 -0 2 3 -7 -2 -0 -0 -1 -1 -2 -1 -1 -0 0 -1 -1 -1 -3 -1 1 1 -0 2 1 -0 -0 -2 1 -1 -2 -1 -1 -0 -1 -1 -1 -1 -0 -2
1 4 8 0 -1 -5 1 7 -1 -1 2 -2 2 -5 -3 -1 -1 -2 -3 -2 1 -2 -0 0 0 -1 -1 -1 -0 2 -1 1 0 -2 -1 -1 -1 0 -1 -1 -0 -1 -0 -0 -1 -1 -0 1 0
8 7 9 3 -2 2 -3 4 -4 -10 -17 1 -2 2 -1 -0 -2 -2 3 3 -2 -2 0 0 0 -0 1 -2 2 0 -0 0 -2 1 0 -1 -1 1 -0 -1 -1 -0 0 -0 -1 -1 -1 0 0
6 -4 0 -3 2 -7 -3 14 -30 5 -13 -5 -7 -2 -5 3 4 -1 -4 -4 -3 -3 -3 -2 -3 -1 -2 -6 0 1 1 -0 -3 3 -1 -2 -1 1 2 -1 -2 -1 -1 -0 -1 0 -0 -1 -1
8 -10 -9 -5 -2 -2 5 -2 -16 -14 20 1 0 6 5 6 3 3 -0 -1 1 2 -3 -3 -2 -2 -3 -1 1 0 1 -1 -1 -0 1 -0 -0 -0 -1 -2 -2 -1 -0 -0 0 0 -0 -1 -1
-10 -0 3 5 8 -1 -7 -12 -6 1 2 14 6 2 -2 -6 -9 -8 -2 -2 2 -2 -1 -1 -1 -2 -2 1 3 1 -0 0 0 -3 2 -0 -1 -0 1 -1 -0 0 -1 -1 -0 0 0 0 0
4 7 5 1 -3 1 4 -4 -13 -18 -2 1 4 2 3 5 11 7 1 -0 3 4 4 4 1 -1 4 4 0 1 1 -0 2 -4 -0 3 2 -1 1 -1 0 1 1 -0 1 -1 -1 1 0
7 -5 -1 1 -0 -5 -2 -2 7 -11 2 -3 0 7 2 3 2 -0 3 8 4 7 1 6 0 1 -0 -1 1 0 1 0 0 -1 -1 0 0 -1 3 3 -2 1 0 -1 -0 -1 0 -3 0
-3 -6 -3 -1 2 -0 1 4 13 7 9 5 11 12 14 14 11 13 13 11 10 9 4 2 5 0 4 4 1 1 1 2 -1 2 -1 -2 -0 -2 1 -0 -2 2 -0 -1 -2 -2 -1 -1 -4
Height
3110 3114 3115 3118 3124 3121 3120 3118 3119 3119 3120 3122 3121 3126 3126 3126 3129 3133 3131 3133 3137 3140 3142 3145 3148 3150 3152 3154 3157 3159 3161 3163 3165 3167 3170 3171 3172 3173 3174 3176 3176 3178 3178 3178 3178 3178 3179 3180 3181
3107 3110 3113 3114 3118 3118 3117 3116 3118 3118 3119 3121 3122 3124 3125 3127 3127 3129 3130 3132 3137 3140 3143 3146 3149 3151 3152 3155 3158 3161 3164 3165 3167 3169 3171 3173 3175 3176 3176 3177 3178 3179 3179 3179 3179 3180 3180 3180 3182
3103 3107 3110 3111 3113 3113 3112 3114 3114 3115 3119 3121 3122 3124 3124 3127 3128 3129 3130 3132 3136 3140 3143 3146 3149 3151 3155 3157 3159 3162 3165 3167 3169 3171 3172 3174 3176 3177 3178 3179 3179 3179 3180 3180 3181 3182 3182 3183 3184
3099 3102 3107 3107 3108 3108 3114 3115 3112 3115 3118 3120 3121 3124 3126 3127 3128 3129 3130 3132 3137 3141 3144 3147 3150 3153 3156 3159 3161 3164 3166 3167 3170 3172 3174 3175 3177 3178 3179 3180 3180 3180 3181 3181 3182 3182 3182 3184 3185
3093 3098 3101 3103 3105 3108 3113 3116 3113 3115 3118 3120 3120 3123 3125 3126 3127 3130 3131 3135 3138 3141 3145 3148 3151 3154 3157 3160 3162 3165 3166 3169 3172 3174 3175 3177 3178 3179 3180 3180 3181 3181 3182 3182 3183 3183 3184 3185 3186
3087 3092 3096 3098 3103 3106 3111 3111 3112 3115 3117 3121 3119 3122 3125 3126 3127 3130 3132 3136 3140 3142 3146 3149 3152 3155 3158 3160 3163 3166 3168 3170 3172 3174 3176 3177 3179 3180 3180 3182 3182 3182 3183 3183 3184 3184 3185 3187 3188
3082 3086 3090 3096 3101 3104 3108 3108 3112 3115 3117 3120 3119 3122 3125 3126 3128 3131 3134 3137 3140 3144 3147 3150 3153 3155 3159 3161 3164 3167 3169 3171 3173 3175 3177 3178 3179 3180 3181 3181 3182 3183 3184 3185 3186 3186 3187 3189 3190
3079 3085 3088 3092 3098 3102 3106 3107 3113 3115 3117 3117 3119 3123 3124 3125 3128 3131 3134 3138 3141 3144 3147 3150 3153 3157 3160 3162 3164 3167 3170 3171 3174 3176 3177 3179 3180 3181 3181 3182 3183 3184 3185 3186 3188 3189 3189 3191 3192
3076 3079 3081 3087 3093 3100 3102 3105 3112 3115 3114 3116 3119 3121 3124 3126 3129 3131 3134 3137 3140 3144 3148 3151 3154 3157 3160 3163 3166 3168 3170 3172 3174 3175 3176 3178 3180 3181 3182 3183 3184 3185 3186 3188 3189 3190 3192 3193 3194
3063 3067 3075 3086 3092 3098 3099 3103 3108 3111 3111 3115 3114 3120 3123 3127 3129 3131 3133 3136 3139 3143 3147 3152 3155 3158 3161 3163 3166 3168 3170 3172 3173 3175 3177 3179 3180 3181 3182 3184 3185 3186 3188 3189 3191 3192 3193 3194 3196
3056 3061 3076 3085 3092 3096 3097 3100 3105 3107 3110 3112 3114 3120 3123 3125 3128 3132 3134 3137 3140 3144 3148 3151 3155 3158 3161 3163 3166 3168 3170 3172 3174 3175 3177 3179 3181 3182 3183 3184 3186 3187 3189 3190 3191 3193 3194 3196 3196
3056 3061 3074 3083 3087 3090 3094 3098 3101 3105 3109 3111 3112 3119 3122 3125 3127 3132 3134 3137 3140 3143 3149 3152 3155 3158 3160 3163 3165 3168 3170 3172 3174 3176 3177 3179 3180 3182 3183 3185 3187 3188 3190 3191 3192 3193 3195 3196 3197
3051 3060 3070 3080 3081 3087 3092 3096 3099 3104 3108 3108 3110 3116 3120 3123 3126 3130 3135 3138 3141 3143 3148 3152 3155 3157 3160 3162 3165 3167 3170 3172 3174 3176 3178 3179 3181 3182 3184 3186 3187 3189 3191 3192 3194 3195 3196 3196 3197
3047 3058 3068 3073 3078 3085 3090 3094 3098 3102 3106 3105 3109 3115 3117 3121 3125 3129 3133 3136 3141 3144 3148 3152 3155 3158 3160 3163 3165 3168 3170 3172 3174 3176 3178 3179 3181 3183 3184 3186 3188 3189 3190 3192 3193 3194 3195 3196 3197
3049 3057 3065 3069 3075 3083 3088 3093 3095 3101 3104 3105 3109 3112 3115 3118 3122 3128 3133 3135 3139 3144 3147 3151 3155 3158 3160 3163 3165 3168 3169 3172 3174 3176 3177 3179 3181 3183 3184 3186 3187 3189 3190 3192 3193 3194 3195 3196 3196
3048 3056 3060 3066 3072 3080 3086 3090 3094 3098 3100 3103 3107 3110 3113 3116 3121 3125 3131 3134 3138 3142 3146 3149 3153 3157 3160 3162 3165 3167 3169 3171 3173 3175 3177 3178 3180 3182 3184 3186 3187 3189 3190 3191 3192 3193 3194 3195 3196
3042 3044 3054 3063 3069 3075 3082 3087 3092 3095 3097 3101 3105 3108 3111 3115 3118 3122 3128 3132 3136 3140 3144 3148 3151 3155 3158 3161 3163 3166 3168 3170 3172 3174 3176 3177 3179 3181 3183 3185 3186 3188 3189 3190 3191 3193 3194 3194 3195
3027 3040 3051 3057 3064 3071 3078 3084 3087 3092 3095 3098 3102 3106 3110 3113 3117 3120 3125 3130 3134 3138 3143 3146 3150 3153 3156 3159 3161 3163 3166 3169 3171 3173 3175 3176 3178 3179 3181 3183 3185 3186 3188 3189 3190 3191 3192 3193 3194
3034 3042 3050 3059 3062 3068 3075 3083 3085 3089 3093 3096 3100 3104 3107 3111 3115 3118 3123 3127 3132 3135 3140 3144 3147 3150 3153 3156 3159 3162 3166 3168 3169 3170 3173 3175 3177 3178 3180 3182 3184 3185 3186 3187 3189 3190 3191 3191 3192
3035 3041 3049 3058 3062 3069 3075 3081 3085 3087 3090 3094 3098 3101 3105 3109 3112 3116 3120 3124 3128 3133 3137 3141 3145 3148 3151 3154 3158 3161 3164 3165 3167 3168 3171 3172 3175 3176 3179 3180 3182 3183 3184 3186 3187 3188 3189 3190 3190
3034 3039 3046 3051 3058 3067 3074 3080 3081 3084 3089 3094 3096 3100 3104 3107 3111 3114 3118 3122 3126 3130 3134 3138 3142 3145 3149 3152 3155 3158 3161 3162 3164 3167 3169 3170 3172 3174 3176 3178 3180 3181 3182 3183 3185 3186 3187 3187 3187
3030 3039 3046 3050 3058 3064 3071 3074 3076 3080 3084 3089 3094 3096 3101 3104 3109 3113 3117 3120 3125 3129 3133 3137 3140 3143 3147 3149 3153 3157 3159 3161 3163 3165 3167 3168 3169 3172 3174 3175 3177 3178 3180 3181 3182 3183 3183 3184 3184
3033 3038 3045 3051 3058 3066 3069 3073 3071 3077 3079 3083 3089 3093 3097 3102 3106 3110 3114 3118 3124 3127 3131 3134 3137 3141 3143 3147 3151 3154 3156 3158 3160 3162 3164 3165 3167 3169 3171 3172 3173 3175 3177 3178 3178 3179 3179 3180 3181
3033 3038 3046 3054 3060 3064 3063 3068 3066 3067 3072 3080 3085 3089 3093 3100 3103 3107 3112 3117 3120 3124 3127 3131 3134 3138 3141 3145 3148 3150 3153 3155 3157 3159 3161 3163 3164 3166 3167 3168 3170 3171 3173 3174 3175 3176 3176 3176 3177
3033 3036 3048 3060 3062 3060 3061 3066 3063 3069 3071 3077 3082 3086 3090 3097 3101 3104 3108 3111 3115 3119 3124 3128 3132 3136 3139 3141 3144 3147 3149 3151 3153 3157 3158 3159 3161 3162 3164 3165 3167 3168 3169 3170 3171 3172 3172 3173 3173
3029 3033 3036 3051 3053 3053 3058 3057 3061 3066 3071 3072 3078 3084 3088 3091 3096 3101 3105 3109 3113 3117 3121 3125 3128 3132 3135 3137 3140 3143 3145 3147 3148 3152 3155 3156 3158 3159 3160 3161 3162 3163 3165 3166 3166 3167 3168 3169 3169
3031 3033 3039 3040 3042 3052 3054 3057 3060 3063 3066 3070 3074 3076 3082 3088 3093 3099 3102 3105 3109 3112 3116 3121 3125 3127 3130 3133 3136 3139 3141 3142 3145 3147 3150 3152 3153 3155 3156 3157 3158 3159 3160 3161 3162 3162 3163 3164 3164
3028 3036 3040 3040 3047 3048 3047 3053 3057 3060 3063 3067 3071 3074 3077 3084 3090 3094 3097 3100 3104 3108 3112 3116 3119 3122 3125 3128 3130 3134 3136 3138 3140 3141 3144 3148 3149 3150 3151 3152 3153 3154 3155 3155 3156 3157 3158 3158 3159
3025 3029 3035 3039 3041 3044 3050 3051 3053 3056 3061 3065 3070 3074 3077 3080 3085 3089 3091 3095 3099 3103 3107 3111 3114 3116 3119 3122 3124 3127 3130 3132 3134 3136 3138 3141 3143 3144 3146 3146 3147 3148 3149 3150 3150 3151 3152 3153 3153
3025 3028 3034 3035 3039 3040 3043 3050 3048 3051 3057 3060 3064 3068 3072 3075 3079 3082 3088 3090 3094 3098 3102 3105 3108 3110 3114 3116 3118 3121 3123 3126 3127 3129 3131 3134 3136 3137 3139 3140 3140 3142 3142 3143 3144 3144 3145 3145 3147